| time (UTC) | temp C | wind direction | speed KPH | gust KPH | rain 1hr cm | rain 24hr cm | rain mn cm | humidity % | barometer mb |
| 20260505194411 | 27 | 215 | 16.1 | 27.4 | 0.00 | 0.00 | 0.00 | 41 | 1010.6 |
| 20260505193906 | 27 | 252 | 14.5 | 20.9 | 0.00 | 0.00 | 0.00 | 40 | 1010.1 |
| 20260505193404 | 26 | 273 | 11.3 | 22.5 | 0.00 | 0.00 | 0.00 | 41 | 1010.1 |
| 20260505192901 | 26 | 179 | 22.5 | 27.4 | 0.00 | 0.00 | 0.00 | 40 | 1010.4 |
| 20260505192359 | 26 | 253 | 8.0 | 24.1 | 0.00 | 0.00 | 0.00 | 43 | 1010.3 |
| 20260505191856 | 26 | 211 | 19.3 | 32.2 | 0.00 | 0.00 | 0.00 | 41 | 1010.3 |
| 20260505191355 | 26 | 229 | 14.5 | 25.7 | 0.00 | 0.00 | 0.00 | 42 | 1010.4 |
| 20260505190852 | 27 | 250 | 11.3 | 20.9 | 0.00 | 0.00 | 0.00 | 43 | 1010.4 |
| 20260505190347 | 26 | 232 | 16.1 | 22.5 | 0.00 | 0.00 | 0.00 | 44 | 1010.3 |
| 20260505185843 | 26 | 239 | 14.5 | 24.1 | 0.00 | 0.00 | 0.00 | 42 | 1010.8 |
| 20260505185339 | 26 | 253 | 12.9 | 20.9 | 0.00 | 0.00 | 0.00 | 45 | 1010.8 |
| 20260505184836 | 26 | 212 | 8.0 | 16.1 | 0.00 | 0.00 | 0.00 | 45 | 1010.8 |
| 20260505184333 | 26 | 233 | 6.4 | 20.9 | 0.00 | 0.00 | 0.00 | 49 | 1011.0 |
| 20260505183830 | 26 | 226 | 14.5 | 20.9 | 0.00 | 0.00 | 0.00 | 47 | 1010.8 |
| 20260505183326 | 26 | 212 | 12.9 | 20.9 | 0.00 | 0.00 | 0.00 | 45 | 1010.7 |
| 20260505182823 | 26 | 178 | 19.3 | 24.1 | 0.00 | 0.00 | 0.00 | 45 | 1010.7 |
| 20260505182320 | 26 | 191 | 14.5 | 17.7 | 0.00 | 0.00 | 0.00 | 44 | 1011.2 |
| 20260505181817 | 26 | 230 | 17.7 | 25.7 | 0.00 | 0.00 | 0.00 | 46 | 1011.1 |
| 20260505181314 | 26 | 223 | 17.7 | 25.7 | 0.00 | 0.00 | 0.00 | 45 | 1011.0 |
| 20260505180811 | 26 | 204 | 11.3 | 17.7 | 0.00 | 0.00 | 0.00 | 46 | 1011.0 |
| 20260505180307 | 26 | 206 | 16.1 | 25.7 | 0.00 | 0.00 | 0.00 | 44 | 1011.3 |
| 20260505175804 | 26 | 194 | 11.3 | 22.5 | 0.00 | 0.00 | 0.00 | 44 | 1011.2 |
| 20260505175300 | 26 | 265 | 9.7 | 17.7 | 0.00 | 0.00 | 0.00 | 47 | 1011.3 |
| 20260505174756 | 26 | 212 | 17.7 | 22.5 | 0.00 | 0.00 | 0.00 | 43 | 1011.3 |
| 20260505174254 | 26 | 206 | 11.3 | 24.1 | 0.00 | 0.00 | 0.00 | 44 | 1011.4 |
| 20260505173750 | 26 | 202 | 17.7 | 25.7 | 0.00 | 0.00 | 0.00 | 45 | 1011.4 |
| 20260505173247 | 26 | 279 | 12.9 | 22.5 | 0.00 | 0.00 | 0.00 | 46 | 1011.5 |
| 20260505172743 | 26 | 204 | 12.9 | 22.5 | 0.00 | 0.00 | 0.00 | 45 | 1011.5 |
| 20260505172241 | 26 | 230 | 9.7 | 22.5 | 0.00 | 0.00 | 0.00 | 47 | 1011.4 |
| 20260505171740 | 26 | 209 | 8.0 | 17.7 | 0.00 | 0.00 | 0.00 | 45 | 1011.5 |
| 20260505171238 | 26 | 210 | 9.7 | 20.9 | 0.00 | 0.00 | 0.00 | 45 | 1011.6 |
| 20260505170734 | 26 | 199 | 9.7 | 20.9 | 0.00 | 0.00 | 0.00 | 45 | 1011.8 |
| 20260505170232 | 26 | 195 | 12.9 | 25.7 | 0.00 | 0.00 | 0.00 | 45 | 1011.5 |
| 20260505165727 | 26 | 248 | 12.9 | 22.5 | 0.00 | 0.00 | 0.00 | 47 | 1011.7 |
| 20260505165223 | 26 | 203 | 9.7 | 20.9 | 0.00 | 0.00 | 0.00 | 48 | 1011.8 |
| 20260505164718 | 25 | 206 | 16.1 | 20.9 | 0.00 | 0.00 | 0.00 | 46 | 1011.8 |
| 20260505164216 | 26 | 206 | 12.9 | 16.1 | 0.00 | 0.00 | 0.00 | 47 | 1011.9 |
| 20260505163714 | 25 | 205 | 14.5 | 20.9 | 0.00 | 0.00 | 0.00 | 48 | 1011.9 |
| 20260505163212 | 25 | 181 | 12.9 | 22.5 | 0.00 | 0.00 | 0.00 | 48 | 1012.1 |
| 20260505162709 | 25 | 241 | 16.1 | 20.9 | 0.00 | 0.00 | 0.00 | 49 | 1012.2 |
| 20260505162206 | 25 | 232 | 8.0 | 17.7 | 0.00 | 0.00 | 0.00 | 50 | 1012.4 |
| 20260505161703 | 25 | 266 | 17.7 | 24.1 | 0.00 | 0.00 | 0.00 | 48 | 1012.4 |
| 20260505161201 | 25 | 209 | 14.5 | 22.5 | 0.00 | 0.00 | 0.00 | 51 | 1012.4 |
| 20260505160658 | 25 | 241 | 8.0 | 14.5 | 0.00 | 0.00 | 0.00 | 53 | 1012.4 |
| 20260505160155 | 25 | 177 | 11.3 | 20.9 | 0.00 | 0.00 | 0.00 | 50 | 1012.6 |
| 20260505153135 | 24 | 209 | 9.7 | 14.5 | 0.00 | 0.00 | 0.00 | 53 | 1012.7 |
| 20260505152631 | 24 | 267 | 12.9 | 17.7 | 0.00 | 0.00 | 0.00 | 52 | 1012.5 |
| 20260505152127 | 24 | 248 | 11.3 | 20.9 | 0.00 | 0.00 | 0.00 | 52 | 1012.5 |
| 20260505151623 | 23 | 275 | 9.7 | 17.7 | 0.00 | 0.00 | 0.00 | 55 | 1012.4 |
| 20260505151120 | 24 | 240 | 12.9 | 20.9 | 0.00 | 0.00 | 0.00 | 54 | 1012.4 |
| 20260505150616 | 24 | 192 | 14.5 | 22.5 | 0.00 | 0.00 | 0.00 | 54 | 1012.2 |
| 20260505150113 | 23 | 197 | 8.0 | 14.5 | 0.00 | 0.00 | 0.00 | 56 | 1012.3 |
| 20260505140542 | 21 | 203 | 8.0 | 14.5 | 0.00 | 0.00 | 0.00 | 58 | 1012.9 |
| 20260505124955 | 18 | 162 | 6.4 | 8.0 | 0.00 | 0.00 | 0.00 | 68 | 1013.5 |
| 20260505124452 | 18 | 187 | 4.8 | 9.7 | 0.00 | 0.00 | 0.00 | 68 | 1013.5 |
| 20260505123948 | 18 | 251 | 6.4 | 14.5 | 0.00 | 0.00 | 0.00 | 68 | 1013.5 |
| 20260505123445 | 17 | 275 | 8.0 | 12.9 | 0.00 | 0.00 | 0.00 | 69 | 1013.5 |
| 20260505122941 | 17 | 215 | 8.0 | 9.7 | 0.00 | 0.00 | 0.00 | 70 | 1013.5 |
| 20260505122438 | 17 | 286 | 1.6 | 9.7 | 0.00 | 0.00 | 0.00 | 71 | 1013.3 |
| 20260505121935 | 17 | 197 | 9.7 | 12.9 | 0.00 | 0.00 | 0.00 | 70 | 1013.5 |
| 20260505121432 | 17 | 197 | 8.0 | 14.5 | 0.00 | 0.00 | 0.00 | 70 | 1013.5 |
| 20260505120927 | 17 | 213 | 9.7 | 12.9 | 0.00 | 0.00 | 0.00 | 71 | 1013.5 |
| 20260505120424 | 17 | 255 | 8.0 | 12.9 | 0.00 | 0.00 | 0.00 | 71 | 1013.5 |
| 20260505115923 | 16 | 219 | 6.4 | 12.9 | 0.00 | 0.00 | 0.00 | 71 | 1013.5 |
| 20260505115420 | 16 | 206 | 8.0 | 11.3 | 0.00 | 0.00 | 0.00 | 71 | 1013.3 |
| 20260505114918 | 16 | 212 | 9.7 | 12.9 | 0.00 | 0.00 | 0.00 | 72 | 1013.2 |
| 20260505114414 | 16 | 275 | 3.2 | 4.8 | 0.00 | 0.00 | 0.00 | 73 | 1013.2 |
| 20260505113910 | 16 | 214 | 6.4 | 9.7 | 0.00 | 0.00 | 0.00 | 73 | 1012.9 |
| 20260505113407 | 16 | 196 | 6.4 | 9.7 | 0.00 | 0.00 | 0.00 | 74 | 1013.1 |
| 20260505112903 | 15 | 185 | 4.8 | 9.7 | 0.00 | 0.00 | 0.00 | 75 | 1013.0 |
| 20260505112401 | 15 | 299 | 3.2 | 9.7 | 0.00 | 0.00 | 0.00 | 75 | 1013.0 |
| 20260505111856 | 15 | 5 | 8.0 | 11.3 | 0.00 | 0.00 | 0.00 | 74 | 1013.0 |
| 20260505111352 | 15 | 301 | 3.2 | 4.8 | 0.00 | 0.00 | 0.00 | 75 | 1012.8 |
| 20260505110848 | 15 | 204 | 4.8 | 9.7 | 0.00 | 0.00 | 0.00 | 75 | 1012.6 |
| 20260505110345 | 15 | 221 | 6.4 | 8.0 | 0.00 | 0.00 | 0.00 | 75 | 1012.7 |
| 20260505101815 | 15 | 224 | 8.0 | 11.3 | 0.00 | 0.00 | 0.00 | 76 | 1012.1 |
| 20260505101310 | 15 | 214 | 6.4 | 11.3 | 0.00 | 0.00 | 0.00 | 77 | 1012.0 |
| 20260505100807 | 15 | 215 | 4.8 | 9.7 | 0.00 | 0.00 | 0.00 | 76 | 1012.0 |
| 20260505100304 | 15 | 222 | 9.7 | 12.9 | 0.00 | 0.00 | 0.00 | 76 | 1012.1 |
| 20260505095759 | 15 | 196 | 6.4 | 11.3 | 0.00 | 0.00 | 0.00 | 76 | 1012.1 |
| 20260505095257 | 15 | 196 | 6.4 | 14.5 | 0.00 | 0.00 | 0.00 | 75 | 1012.1 |
| 20260505094752 | 15 | 271 | 4.8 | 11.3 | 0.00 | 0.00 | 0.00 | 75 | 1011.9 |
| 20260505094249 | 15 | 241 | 4.8 | 14.5 | 0.00 | 0.00 | 0.00 | 74 | 1012.0 |
| 20260505093745 | 15 | 209 | 11.3 | 12.9 | 0.00 | 0.00 | 0.00 | 74 | 1012.0 |
| 20260505093243 | 15 | 215 | 4.8 | 12.9 | 0.00 | 0.00 | 0.00 | 74 | 1011.7 |
| 20260505092740 | 15 | 170 | 1.6 | 9.7 | 0.00 | 0.00 | 0.00 | 74 | 1012.1 |
| 20260505092238 | 15 | 295 | 3.2 | 9.7 | 0.00 | 0.00 | 0.00 | 74 | 1011.9 |
| 20260505091735 | 15 | 156 | 4.8 | 9.7 | 0.00 | 0.00 | 0.00 | 74 | 1011.9 |
| 20260505091233 | 15 | 263 | 4.8 | 4.8 | 0.00 | 0.00 | 0.00 | 74 | 1011.7 |
| 20260505090730 | 15 | 210 | 4.8 | 9.7 | 0.00 | 0.00 | 0.00 | 74 | 1011.6 |
| 20260505090229 | 15 | 310 | 3.2 | 4.8 | 0.00 | 0.00 | 0.00 | 74 | 1011.8 |
| 20260505085726 | 15 | 318 | 4.8 | 9.7 | 0.00 | 0.00 | 0.00 | 74 | 1011.5 |
| 20260505085224 | 15 | 219 | 6.4 | 8.0 | 0.00 | 0.00 | 0.00 | 74 | 1011.6 |
| 20260505084721 | 15 | 265 | 3.2 | 8.0 | 0.00 | 0.00 | 0.00 | 74 | 1011.6 |
| 20260505084220 | 16 | 171 | 4.8 | 9.7 | 0.00 | 0.00 | 0.00 | 73 | 1011.4 |
| 20260505083716 | 16 | 152 | 4.8 | 8.0 | 0.00 | 0.00 | 0.00 | 72 | 1011.6 |
| 20260505083213 | 16 | 335 | 3.2 | 8.0 | 0.00 | 0.00 | 0.00 | 72 | 1011.6 |
| 20260505082709 | 16 | 250 | 3.2 | 11.3 | 0.00 | 0.00 | 0.00 | 71 | 1011.5 |
| 20260505082207 | 16 | 253 | 4.8 | 9.7 | 0.00 | 0.00 | 0.00 | 71 | 1011.7 |
| 20260505081702 | 16 | 268 | 6.4 | 14.5 | 0.00 | 0.00 | 0.00 | 70 | 1011.6 |
| 20260505081200 | 16 | 319 | 1.6 | 8.0 | 0.00 | 0.00 | 0.00 | 70 | 1011.7 |
| 20260505080657 | 16 | 178 | 6.4 | 11.3 | 0.00 | 0.00 | 0.00 | 70 | 1011.6 |
| 20260505080152 | 16 | 221 | 4.8 | 9.7 | 0.00 | 0.00 | 0.00 | 70 | 1011.6 |
| 20260505075648 | 16 | 263 | 4.8 | 9.7 | 0.00 | 0.00 | 0.00 | 69 | 1011.6 |
| 20260505075145 | 16 | 200 | 4.8 | 9.7 | 0.00 | 0.00 | 0.00 | 70 | 1011.5 |
| 20260505074643 | 16 | 262 | 3.2 | 8.0 | 0.00 | 0.00 | 0.00 | 69 | 1011.5 |
| 20260505074139 | 16 | 196 | 4.8 | 11.3 | 0.00 | 0.00 | 0.00 | 69 | 1011.5 |
| 20260505073637 | 16 | 195 | 4.8 | 9.7 | 0.00 | 0.00 | 0.00 | 69 | 1011.4 |
| 20260505073135 | 16 | 228 | 3.2 | 4.8 | 0.00 | 0.00 | 0.00 | 69 | 1011.4 |
| 20260505072630 | 16 | 210 | 4.8 | 9.7 | 0.00 | 0.00 | 0.00 | 69 | 1011.1 |
| 20260505072127 | 16 | 223 | 3.2 | 4.8 | 0.00 | 0.00 | 0.00 | 69 | 1011.3 |
| 20260505071623 | 16 | 248 | 4.8 | 8.0 | 0.00 | 0.00 | 0.00 | 70 | 1011.3 |
| 20260505071121 | 16 | 264 | 3.2 | 8.0 | 0.00 | 0.00 | 0.00 | 70 | 1011.2 |
| 20260505070618 | 16 | 304 | 1.6 | 3.2 | 0.00 | 0.00 | 0.00 | 71 | 1011.1 |
| 20260505070114 | 16 | 215 | 3.2 | 4.8 | 0.00 | 0.00 | 0.00 | 71 | 1011.3 |
| 20260505065610 | 16 | 328 | 0.0 | 9.7 | 0.00 | 0.00 | 0.00 | 71 | 1011.2 |
| 20260505065107 | 16 | 223 | 4.8 | 8.0 | 0.00 | 0.00 | 0.00 | 70 | 1011.3 |
| 20260505064604 | 16 | 211 | 4.8 | 8.0 | 0.00 | 0.00 | 0.00 | 71 | 1011.3 |
| 20260505064103 | 16 | 296 | 3.2 | 3.2 | 0.00 | 0.00 | 0.00 | 71 | 1011.4 |
| 20260505063559 | 16 | 283 | 1.6 | 4.8 | 0.00 | 0.00 | 0.00 | 70 | 1011.4 |
| 20260505063055 | 16 | 194 | 3.2 | 8.0 | 0.00 | 0.00 | 0.00 | 70 | 1011.6 |
| 20260505062551 | 16 | 288 | 1.6 | 4.8 | 0.00 | 0.00 | 0.00 | 70 | 1011.6 |
| 20260505062049 | 16 | 307 | 3.2 | 4.8 | 0.00 | 0.00 | 0.00 | 70 | 1011.9 |
| 20260505061546 | 16 | 212 | 4.8 | 8.0 | 0.00 | 0.00 | 0.00 | 70 | 1011.5 |
| 20260505061044 | 16 | 241 | 3.2 | 11.3 | 0.00 | 0.00 | 0.00 | 70 | 1011.7 |
| 20260505060541 | 16 | 332 | 3.2 | 8.0 | 0.00 | 0.00 | 0.00 | 70 | 1011.6 |
| 20260505060038 | 16 | 223 | 3.2 | 9.7 | 0.00 | 0.00 | 0.00 | 69 | 1011.5 |
| 20260505055533 | 17 | 209 | 8.0 | 9.7 | 0.00 | 0.00 | 0.00 | 69 | 1011.8 |
| 20260505055030 | 17 | 217 | 9.7 | 12.9 | 0.00 | 0.00 | 0.00 | 68 | 1011.7 |
| 20260505054527 | 17 | 174 | 4.8 | 11.3 | 0.00 | 0.00 | 0.00 | 68 | 1011.7 |
| 20260505054026 | 17 | 214 | 4.8 | 11.3 | 0.00 | 0.00 | 0.00 | 68 | 1011.7 |
| 20260505053522 | 17 | 184 | 4.8 | 9.7 | 0.00 | 0.00 | 0.00 | 68 | 1011.8 |
| 20260505053019 | 17 | 203 | 6.4 | 9.7 | 0.00 | 0.00 | 0.00 | 67 | 1011.7 |
| 20260505052516 | 17 | 200 | 6.4 | 9.7 | 0.00 | 0.00 | 0.00 | 66 | 1011.8 |
| 20260505052014 | 17 | 234 | 8.0 | 9.7 | 0.00 | 0.00 | 0.00 | 66 | 1011.9 |
| 20260505051510 | 17 | 208 | 6.4 | 9.7 | 0.00 | 0.00 | 0.00 | 65 | 1011.8 |
| 20260505051009 | 17 | 216 | 4.8 | 11.3 | 0.00 | 0.00 | 0.00 | 65 | 1011.6 |
| 20260505050506 | 17 | 289 | 3.2 | 12.9 | 0.00 | 0.00 | 0.00 | 65 | 1011.6 |
| 20260505041434 | 17 | 209 | 6.4 | 12.9 | 0.00 | 0.00 | 0.00 | 63 | 1011.6 |
| 20260505040931 | 17 | 203 | 4.8 | 11.3 | 0.00 | 0.00 | 0.00 | 64 | 1011.4 |
| 20260505040428 | 18 | 222 | 4.8 | 8.0 | 0.00 | 0.00 | 0.00 | 63 | 1011.5 |
| 20260505035925 | 17 | 169 | 6.4 | 8.0 | 0.00 | 0.00 | 0.00 | 63 | 1011.3 |
| 20260505035421 | 18 | 299 | 8.0 | 9.7 | 0.00 | 0.00 | 0.00 | 62 | 1011.3 |
| 20260505034919 | 18 | 206 | 8.0 | 11.3 | 0.00 | 0.00 | 0.00 | 62 | 1011.3 |
| 20260505034415 | 18 | 128 | 6.4 | 12.9 | 0.00 | 0.00 | 0.00 | 61 | 1011.3 |
| 20260505033912 | 18 | 172 | 4.8 | 4.8 | 0.00 | 0.00 | 0.00 | 62 | 1011.3 |
| 20260505033409 | 18 | 220 | 4.8 | 9.7 | 0.00 | 0.00 | 0.00 | 61 | 1011.4 |
| 20260505032907 | 18 | 250 | 3.2 | 4.8 | 0.00 | 0.00 | 0.00 | 62 | 1011.2 |
| 20260505032403 | 18 | 241 | 4.8 | 9.7 | 0.00 | 0.00 | 0.00 | 61 | 1011.1 |
| 20260505031900 | 18 | 220 | 4.8 | 12.9 | 0.00 | 0.00 | 0.00 | 61 | 1011.5 |
| 20260505031357 | 18 | 219 | 8.0 | 11.3 | 0.00 | 0.00 | 0.00 | 61 | 1011.2 |
| 20260505030854 | 18 | 258 | 4.8 | 9.7 | 0.00 | 0.00 | 0.00 | 61 | 1011.2 |
| 20260505030350 | 18 | 282 | 6.4 | 11.3 | 0.00 | 0.00 | 0.00 | 60 | 1011.4 |
| 20260505025845 | 17 | 232 | 8.0 | 14.5 | 0.00 | 0.00 | 0.00 | 62 | 1011.5 |
| 20260505025343 | 17 | 236 | 8.0 | 11.3 | 0.00 | 0.00 | 0.00 | 62 | 1011.2 |
| 20260505024842 | 17 | 272 | 1.6 | 9.7 | 0.00 | 0.00 | 0.00 | 62 | 1011.6 |
| 20260505024339 | 17 | 221 | 6.4 | 8.0 | 0.00 | 0.00 | 0.00 | 61 | 1011.2 |
| 20260505023836 | 18 | 192 | 4.8 | 8.0 | 0.00 | 0.00 | 0.00 | 60 | 1011.1 |
| 20260505023333 | 18 | 225 | 6.4 | 11.3 | 0.00 | 0.00 | 0.00 | 60 | 1011.4 |
| 20260505022830 | 18 | 167 | 4.8 | 8.0 | 0.00 | 0.00 | 0.00 | 60 | 1011.3 |
| 20260505022327 | 18 | 209 | 4.8 | 12.9 | 0.00 | 0.00 | 0.00 | 59 | 1011.2 |
| 20260505021825 | 18 | 248 | 4.8 | 11.3 | 0.00 | 0.00 | 0.00 | 58 | 1011.2 |
| 20260505021321 | 18 | 232 | 4.8 | 9.7 | 0.00 | 0.00 | 0.00 | 58 | 1011.1 |
| 20260505020817 | 18 | 232 | 8.0 | 16.1 | 0.00 | 0.00 | 0.00 | 57 | 1011.2 |
| 20260505020312 | 18 | 257 | 4.8 | 9.7 | 0.00 | 0.00 | 0.00 | 58 | 1011.0 |
| 20260505015809 | 19 | 238 | 6.4 | 9.7 | 0.00 | 0.00 | 0.00 | 57 | 1011.1 |
| 20260505015307 | 19 | 242 | 8.0 | 11.3 | 0.00 | 0.00 | 0.00 | 56 | 1011.3 |
| 20260505014804 | 19 | 33 | 6.4 | 11.3 | 0.00 | 0.00 | 0.00 | 55 | 1011.2 |
| 20260505014301 | 19 | 139 | 8.0 | 12.9 | 0.00 | 0.00 | 0.00 | 55 | 1011.0 |
| 20260505013757 | 18 | 230 | 4.8 | 9.7 | 0.00 | 0.00 | 0.00 | 56 | 1010.9 |
| 20260505013255 | 18 | 147 | 6.4 | 9.7 | 0.00 | 0.00 | 0.00 | 55 | 1010.6 |
| 20260505012753 | 19 | 295 | 6.4 | 12.9 | 0.00 | 0.00 | 0.00 | 55 | 1011.0 |
| 20260505012250 | 19 | 196 | 4.8 | 9.7 | 0.00 | 0.00 | 0.00 | 55 | 1010.9 |
| 20260505011745 | 19 | 230 | 4.8 | 9.7 | 0.00 | 0.00 | 0.00 | 55 | 1011.0 |
| 20260505011243 | 19 | 200 | 3.2 | 8.0 | 0.00 | 0.00 | 0.00 | 54 | 1011.0 |
| 20260505010738 | 19 | 193 | 4.8 | 8.0 | 0.00 | 0.00 | 0.00 | 54 | 1011.0 |
| 20260505010235 | 19 | 204 | 3.2 | 11.3 | 0.00 | 0.00 | 0.00 | 54 | 1010.7 |
| 20260505005731 | 19 | 3 | 1.6 | 8.0 | 0.00 | 0.00 | 0.00 | 54 | 1010.6 |
| 20260505005228 | 19 | 183 | 3.2 | 4.8 | 0.00 | 0.00 | 0.00 | 53 | 1010.8 |
| 20260505004726 | 19 | 200 | 8.0 | 9.7 | 0.00 | 0.00 | 0.00 | 52 | 1010.6 |
| 20260505004222 | 20 | 177 | 6.4 | 9.7 | 0.00 | 0.00 | 0.00 | 52 | 1010.2 |
| 20260505003719 | 20 | 276 | 3.2 | 9.7 | 0.00 | 0.00 | 0.00 | 52 | 1010.3 |
| 20260505003217 | 20 | 193 | 6.4 | 12.9 | 0.00 | 0.00 | 0.00 | 51 | 1010.6 |
| 20260505002713 | 20 | 240 | 8.0 | 14.5 | 0.00 | 0.00 | 0.00 | 51 | 1010.7 |
| 20260505002211 | 20 | 200 | 6.4 | 9.7 | 0.00 | 0.00 | 0.00 | 51 | 1010.4 |
| 20260505001708 | 20 | 194 | 4.8 | 8.0 | 0.00 | 0.00 | 0.00 | 51 | 1010.6 |
| 20260505001205 | 20 | 214 | 8.0 | 16.1 | 0.00 | 0.00 | 0.00 | 50 | 1010.6 |
| 20260505000702 | 20 | 248 | 3.2 | 11.3 | 0.00 | 0.00 | 0.00 | 51 | 1010.3 |
| 20260505000200 | 20 | 206 | 8.0 | 9.7 | 0.00 | 0.00 | 0.00 | 50 | 1010.7 |
| 20260504235656 | 20 | 328 | 6.4 | 8.0 | 0.00 | 0.00 | 0.00 | 50 | 1010.2 |
| 20260504235152 | 20 | 184 | 9.7 | 14.5 | 0.00 | 0.00 | 0.00 | 49 | 1010.1 |
| 20260504234650 | 20 | 217 | 4.8 | 9.7 | 0.00 | 0.00 | 0.00 | 49 | 1010.2 |
| 20260504234147 | 21 | 297 | 4.8 | 4.8 | 0.00 | 0.00 | 0.00 | 49 | 1010.2 |
| 20260504233643 | 21 | 165 | 4.8 | 9.7 | 0.00 | 0.00 | 0.00 | 48 | 1010.2 |
| 20260504233138 | 21 | 246 | 3.2 | 4.8 | 0.00 | 0.00 | 0.00 | 49 | 1010.2 |
| 20260504232636 | 21 | 251 | 3.2 | 3.2 | 0.00 | 0.00 | 0.00 | 48 | 1010.1 |
| 20260504232128 | 21 | 202 | 4.8 | 4.8 | 0.00 | 0.00 | 0.00 | 47 | 1010.2 |
| 20260504231624 | 21 | 187 | 4.8 | 9.7 | 0.00 | 0.00 | 0.00 | 48 | 1010.2 |
| 20260504231121 | 21 | 216 | 9.7 | 11.3 | 0.00 | 0.00 | 0.00 | 47 | 1010.1 |
| 20260504230617 | 21 | 235 | 4.8 | 12.9 | 0.00 | 0.00 | 0.00 | 47 | 1010.3 |
| 20260504230116 | 22 | 219 | 8.0 | 14.5 | 0.00 | 0.00 | 0.00 | 46 | 1010.2 |
| 20260504225614 | 22 | 197 | 4.8 | 8.0 | 0.00 | 0.00 | 0.00 | 48 | 1010.6 |
| 20260504225110 | 22 | 293 | 4.8 | 11.3 | 0.00 | 0.00 | 0.00 | 46 | 1010.2 |
| 20260504224607 | 22 | 196 | 9.7 | 14.5 | 0.00 | 0.00 | 0.00 | 47 | 1010.7 |
| 20260504224104 | 22 | 306 | 4.8 | 4.8 | 0.00 | 0.00 | 0.00 | 47 | 1010.6 |
| 20260504223601 | 22 | 217 | 8.0 | 9.7 | 0.00 | 0.00 | 0.00 | 46 | 1010.2 |
| 20260504223056 | 22 | 302 | 4.8 | 11.3 | 0.00 | 0.00 | 0.00 | 47 | 1010.4 |
| 20260504222553 | 22 | 343 | 4.8 | 8.0 | 0.00 | 0.00 | 0.00 | 48 | 1010.9 |
| 20260504222050 | 22 | 222 | 6.4 | 9.7 | 0.00 | 0.00 | 0.00 | 47 | 1010.4 |
| 20260504221548 | 22 | 227 | 6.4 | 9.7 | 0.00 | 0.00 | 0.00 | 46 | 1010.4 |
| 20260504221044 | 23 | 181 | 11.3 | 14.5 | 0.00 | 0.00 | 0.00 | 44 | 1010.4 |
| 20260504220541 | 23 | 225 | 4.8 | 9.7 | 0.00 | 0.00 | 0.00 | 47 | 1010.6 |
| 20260504220038 | 23 | 242 | 8.0 | 9.7 | 0.00 | 0.00 | 0.00 | 45 | 1010.4 |
| 20260504215534 | 23 | 295 | 4.8 | 9.7 | 0.00 | 0.00 | 0.00 | 47 | 1010.4 |
| 20260504215032 | 23 | 270 | 6.4 | 14.5 | 0.00 | 0.00 | 0.00 | 46 | 1010.4 |
| 20260504214528 | 23 | 211 | 8.0 | 14.5 | 0.00 | 0.00 | 0.00 | 45 | 1010.4 |
| 20260504214024 | 22 | 201 | 12.9 | 16.1 | 0.00 | 0.00 | 0.00 | 45 | 1010.6 |
| 20260504213521 | 22 | 210 | 8.0 | 16.1 | 0.00 | 0.00 | 0.00 | 45 | 1010.6 |
| 20260504213018 | 23 | 207 | 9.7 | 24.1 | 0.00 | 0.00 | 0.00 | 44 | 1010.7 |
| 20260504212514 | 23 | 227 | 8.0 | 12.9 | 0.00 | 0.00 | 0.00 | 45 | 1010.2 |
| 20260504212011 | 23 | 232 | 9.7 | 16.1 | 0.00 | 0.00 | 0.00 | 44 | 1010.8 |
| 20260504211508 | 22 | 208 | 11.3 | 14.5 | 0.00 | 0.00 | 0.00 | 44 | 1010.3 |
| 20260504211006 | 22 | 213 | 12.9 | 16.1 | 0.00 | 0.00 | 0.00 | 45 | 1010.6 |
| 20260504210502 | 23 | 216 | 9.7 | 12.9 | 0.00 | 0.00 | 0.00 | 47 | 1010.8 |
| 20260504205959 | 23 | 240 | 6.4 | 12.9 | 0.00 | 0.00 | 0.00 | 48 | 1010.6 |
| 20260504205457 | 23 | 197 | 11.3 | 17.7 | 0.00 | 0.00 | 0.00 | 45 | 1010.7 |
| 20260504204955 | 23 | 206 | 8.0 | 12.9 | 0.00 | 0.00 | 0.00 | 44 | 1010.4 |
| 20260504204452 | 23 | 148 | 11.3 | 22.5 | 0.00 | 0.00 | 0.00 | 45 | 1010.4 |
| 20260504203951 | 23 | 191 | 11.3 | 12.9 | 0.00 | 0.00 | 0.00 | 43 | 1010.4 |
| 20260504203449 | 22 | 237 | 6.4 | 12.9 | 0.00 | 0.00 | 0.00 | 46 | 1010.6 |
| 20260504202945 | 22 | 207 | 9.7 | 14.5 | 0.00 | 0.00 | 0.00 | 45 | 1010.7 |
| 20260504202441 | 22 | 107 | 12.9 | 17.7 | 0.00 | 0.00 | 0.00 | 45 | 1010.7 |
| 20260504201938 | 22 | 197 | 14.5 | 22.5 | 0.00 | 0.00 | 0.00 | 44 | 1010.7 |
| 20260504201435 | 22 | 216 | 11.3 | 20.9 | 0.00 | 0.00 | 0.00 | 46 | 1010.8 |
| 20260504200933 | 22 | 226 | 11.3 | 17.7 | 0.00 | 0.00 | 0.00 | 45 | 1011.1 |
| 20260504200430 | 22 | 267 | 4.8 | 16.1 | 0.00 | 0.00 | 0.00 | 48 | 1011.2 |
| 20260504195926 | 22 | 180 | 11.3 | 20.9 | 0.00 | 0.00 | 0.00 | 45 | 1011.2 |
| 20260504195422 | 22 | 244 | 11.3 | 17.7 | 0.00 | 0.00 | 0.00 | 45 | 1011.4 |
| 20260504194919 | 22 | 222 | 8.0 | 16.1 | 0.00 | 0.00 | 0.00 | 47 | 1011.1 |